CPA134 YMML-VHHX

Flight info

Callsign CPA134
Flight time N/A
Altitude 34000
Route KEPPA3 KEPPA DCT LEC DCT AS DCT DAR/N0500F360 DCT AMN DCT DAO/N0496F380 DCT MIA DCT SABNO SABNO31
Aircraft B744/H-SDE3FGHIM1M2RWXY/LB1

Departure

Time N/A
Airport Melbourne Airport (YMML)

Arrival

Time 2026-05-01 09:14
Airport Hong Kong International Airport Kai Tak (VHHX)
Time Latitude Longitude Altitude Speed Heading
2026-05-01 08:20 17.91432 117.12017 38893 ft 473 kts 308°
2026-05-01 08:20 17.93622 117.09436 38894 ft 473 kts 308°
2026-05-01 08:21 17.97998 117.04272 38894 ft 472 kts 308°
2026-05-01 08:21 18.02359 116.99122 38894 ft 471 kts 307°
2026-05-01 08:22 18.06701 116.93991 38896 ft 469 kts 307°
2026-05-01 08:22 18.11034 116.88865 38897 ft 469 kts 307°
2026-05-01 08:23 18.15372 116.83730 38897 ft 469 kts 307°
2026-05-01 08:23 18.19701 116.78603 38895 ft 468 kts 307°
2026-05-01 08:24 18.24022 116.73479 38916 ft 468 kts 307°
2026-05-01 08:24 18.28347 116.68347 38919 ft 468 kts 307°
2026-05-01 08:25 18.32663 116.63221 38932 ft 468 kts 307°
2026-05-01 08:25 18.36983 116.58087 38936 ft 468 kts 307°
2026-05-01 08:26 18.41301 116.52950 38937 ft 468 kts 307°
2026-05-01 08:26 18.45616 116.47813 38937 ft 468 kts 307°
2026-05-01 08:27 18.49926 116.42680 38936 ft 468 kts 307°
2026-05-01 08:27 18.54231 116.37544 38939 ft 467 kts 307°
2026-05-01 08:28 18.58530 116.32413 38939 ft 467 kts 307°
2026-05-01 08:28 18.62828 116.27279 38941 ft 467 kts 307°
2026-05-01 08:29 18.67133 116.22133 38942 ft 467 kts 307°
2026-05-01 08:29 18.71406 116.17022 38939 ft 467 kts 307°
2026-05-01 08:30 18.75697 116.11882 38944 ft 466 kts 307°
2026-05-01 08:30 18.79990 116.06754 38945 ft 466 kts 307°
2026-05-01 08:31 18.84278 116.01611 38938 ft 466 kts 307°
2026-05-01 08:31 18.88551 115.96475 38939 ft 465 kts 307°
2026-05-01 08:32 18.92821 115.91337 38940 ft 465 kts 307°
2026-05-01 08:32 18.97139 115.86234 38929 ft 467 kts 313°
2026-05-01 08:33 19.02457 115.82305 38942 ft 473 kts 325°
2026-05-01 08:33 19.08295 115.78990 38944 ft 477 kts 328°
2026-05-01 08:34 19.14218 115.75803 38945 ft 477 kts 328°
2026-05-01 08:34 19.20117 115.72582 38946 ft 477 kts 328°
2026-05-01 08:35 19.25995 115.69350 38947 ft 476 kts 328°
2026-05-01 08:35 19.31874 115.66117 38948 ft 476 kts 328°
2026-05-01 08:36 19.37745 115.62885 38949 ft 476 kts 328°
2026-05-01 08:36 19.43611 115.59650 38946 ft 476 kts 328°
2026-05-01 08:37 19.49476 115.56408 38951 ft 475 kts 328°
2026-05-01 08:37 19.55329 115.53169 38952 ft 475 kts 328°
2026-05-01 08:38 19.61187 115.49925 38953 ft 475 kts 328°
2026-05-01 08:38 19.67041 115.46681 38950 ft 475 kts 328°
2026-05-01 08:39 19.72899 115.43431 38955 ft 475 kts 328°
2026-05-01 08:39 19.78750 115.40182 38956 ft 474 kts 328°
2026-05-01 08:40 19.87520 115.35308 38957 ft 474 kts 328°
2026-05-01 08:40 19.93326 115.32077 38958 ft 474 kts 328°
2026-05-01 08:41 19.99173 115.28822 38959 ft 474 kts 328°
2026-05-01 08:41 20.05014 115.25568 38958 ft 474 kts 328°
2026-05-01 08:42 20.10892 115.22288 38961 ft 474 kts 328°
2026-05-01 08:42 20.16685 115.19054 38962 ft 474 kts 328°
2026-05-01 08:43 20.22521 115.15793 38962 ft 474 kts 328°
2026-05-01 08:43 20.28356 115.12530 38963 ft 474 kts 328°
2026-05-01 08:44 20.34195 115.09262 38964 ft 474 kts 328°
2026-05-01 08:44 20.40028 115.05995 38964 ft 473 kts 328°
2026-05-01 08:45 20.45857 115.02726 38965 ft 474 kts 328°
2026-05-01 08:45 20.51705 114.99445 38965 ft 474 kts 328°
2026-05-01 08:46 20.57508 114.96186 38965 ft 474 kts 328°
2026-05-01 08:46 20.63342 114.92908 38950 ft 474 kts 328°
2026-05-01 08:47 20.66258 114.91267 38621 ft 473 kts 328°
2026-05-01 08:47 20.69170 114.89627 37867 ft 474 kts 328°
2026-05-01 08:47 20.72089 114.87984 37096 ft 475 kts 328°
2026-05-01 08:47 20.75009 114.86339 36301 ft 475 kts 328°
2026-05-01 08:48 20.77942 114.84686 35501 ft 476 kts 328°
2026-05-01 08:48 20.80869 114.83037 34728 ft 476 kts 329°
2026-05-01 08:48 20.83805 114.81380 33931 ft 477 kts 329°
2026-05-01 08:48 20.86741 114.79724 33126 ft 478 kts 329°
2026-05-01 08:49 20.89681 114.78065 32364 ft 477 kts 329°
2026-05-01 08:49 20.92610 114.76412 31705 ft 474 kts 329°
2026-05-01 08:49 20.95514 114.74771 31050 ft 471 kts 328°
2026-05-01 08:49 20.98401 114.73139 30413 ft 468 kts 328°
2026-05-01 08:50 21.01270 114.71516 29784 ft 464 kts 328°
2026-05-01 08:50 21.04110 114.69909 29161 ft 460 kts 328°
2026-05-01 08:50 21.06928 114.68321 28536 ft 456 kts 328°
2026-05-01 08:50 21.09729 114.66738 27912 ft 453 kts 328°
2026-05-01 08:51 21.12507 114.65165 27291 ft 449 kts 328°
2026-05-01 08:51 21.15219 114.63626 26680 ft 445 kts 328°
2026-05-01 08:51 21.17947 114.62078 26063 ft 442 kts 328°
2026-05-01 08:51 21.20684 114.60524 25439 ft 438 kts 328°
2026-05-01 08:52 21.23368 114.58999 24825 ft 435 kts 328°
2026-05-01 08:52 21.26030 114.57486 24213 ft 431 kts 328°
2026-05-01 08:52 21.28666 114.55988 23604 ft 427 kts 328°
2026-05-01 08:52 21.31251 114.54520 23002 ft 424 kts 328°
2026-05-01 08:53 21.33848 114.53041 22394 ft 421 kts 328°
2026-05-01 08:53 21.36438 114.51610 21776 ft 418 kts 329°
2026-05-01 08:53 21.39005 114.50201 21084 ft 410 kts 329°
2026-05-01 08:53 21.41519 114.48813 20269 ft 404 kts 329°
2026-05-01 08:54 21.44007 114.47438 19421 ft 400 kts 329°
2026-05-01 08:54 21.46494 114.46061 18846 ft 403 kts 329°
2026-05-01 08:54 21.48986 114.44678 18489 ft 403 kts 329°
2026-05-01 08:54 21.51456 114.43283 18208 ft 400 kts 329°
2026-05-01 08:55 21.53903 114.41894 17780 ft 396 kts 328°
2026-05-01 08:55 21.56339 114.40510 17081 ft 396 kts 328°
2026-05-01 08:55 21.58761 114.39132 16501 ft 393 kts 329°
2026-05-01 08:55 21.61167 114.37761 15918 ft 390 kts 329°
2026-05-01 08:56 21.63553 114.36402 15341 ft 387 kts 329°
2026-05-01 08:56 21.65922 114.35051 14830 ft 382 kts 329°
2026-05-01 08:56 21.68228 114.33737 14712 ft 367 kts 329°
2026-05-01 08:56 21.70438 114.32476 14547 ft 354 kts 329°
2026-05-01 08:57 21.72580 114.31254 14389 ft 342 kts 329°
2026-05-01 08:57 21.74645 114.30078 14234 ft 330 kts 329°
2026-05-01 08:57 21.76640 114.28940 14083 ft 319 kts 328°
2026-05-01 08:57 21.78568 114.27837 13890 ft 310 kts 328°
2026-05-01 08:58 21.80458 114.26761 13638 ft 306 kts 328°
2026-05-01 08:58 21.82347 114.25683 13387 ft 308 kts 328°
2026-05-01 08:58 21.84229 114.24609 13130 ft 305 kts 328°
2026-05-01 08:58 21.86103 114.23538 12872 ft 305 kts 329°
2026-05-01 08:59 21.87973 114.22470 12621 ft 304 kts 329°
2026-05-01 08:59 21.89834 114.21406 12364 ft 302 kts 329°
2026-05-01 08:59 21.91687 114.20346 12111 ft 302 kts 329°
2026-05-01 08:59 21.93539 114.19288 11861 ft 300 kts 329°
2026-05-01 09:00 21.95383 114.18241 11612 ft 300 kts 329°
2026-05-01 09:00 21.97221 114.17194 11363 ft 298 kts 329°
2026-05-01 09:00 21.99052 114.16148 11114 ft 298 kts 329°
2026-05-01 09:00 22.00880 114.15103 10867 ft 297 kts 329°
2026-05-01 09:01 22.02695 114.14063 10617 ft 295 kts 329°
2026-05-01 09:01 22.04508 114.13024 10370 ft 293 kts 329°
2026-05-01 09:01 22.06285 114.12004 10124 ft 286 kts 329°
2026-05-01 09:01 22.08020 114.11009 9890 ft 279 kts 329°
2026-05-01 09:02 22.09715 114.10036 9663 ft 281 kts 329°
2026-05-01 09:02 22.11434 114.09049 9429 ft 279 kts 329°
2026-05-01 09:02 22.13146 114.08067 9196 ft 279 kts 329°
2026-05-01 09:02 22.14877 114.07073 8964 ft 278 kts 330°
2026-05-01 09:03 22.16558 114.06107 8731 ft 277 kts 330°
2026-05-01 09:03 22.18261 114.05129 8501 ft 278 kts 330°
2026-05-01 09:03 22.19936 114.04129 8278 ft 271 kts 324°
2026-05-01 09:03 22.21161 114.02673 8068 ft 256 kts 297°
2026-05-01 09:04 22.21687 114.00907 7937 ft 241 kts 282°
2026-05-01 09:04 22.21884 113.99144 7658 ft 234 kts 273°
2026-05-01 09:04 22.21885 113.97414 7380 ft 226 kts 268°
2026-05-01 09:04 22.21806 113.95742 7014 ft 221 kts 265°
2026-05-01 09:05 22.21721 113.94100 6657 ft 216 kts 265°
2026-05-01 09:05 22.21644 113.92499 6346 ft 210 kts 265°
2026-05-01 09:05 22.21570 113.90985 6122 ft 198 kts 264°
2026-05-01 09:05 22.21558 113.89484 5953 ft 207 kts 275°
2026-05-01 09:06 22.22168 113.88085 5621 ft 208 kts 310°
2026-05-01 09:06 22.23410 113.87330 5425 ft 208 kts 343°
2026-05-01 09:06 22.24827 113.87393 5309 ft 203 kts 13°
2026-05-01 09:06 22.26099 113.88030 5232 ft 201 kts 29°
2026-05-01 09:07 22.27261 113.88853 5110 ft 198 kts 37°
2026-05-01 09:07 22.28326 113.89787 4961 ft 196 kts 43°
2026-05-01 09:07 22.28981 113.90455 4863 ft 195 kts 47°
2026-05-01 09:07 22.29898 113.91521 4729 ft 193 kts 47°
2026-05-01 09:08 22.30861 113.92536 4599 ft 194 kts 46°
2026-05-01 09:08 22.31720 113.93629 4520 ft 191 kts 66°
2026-05-01 09:08 22.32003 113.95010 4487 ft 188 kts 84°
2026-05-01 09:08 22.32039 113.96416 4256 ft 186 kts 90°
2026-05-01 09:09 22.32032 113.97803 4003 ft 184 kts 90°
2026-05-01 09:09 22.32061 113.99183 3747 ft 183 kts 88°
2026-05-01 09:09 22.32151 114.00956 3445 ft 169 kts 86°
2026-05-01 09:09 22.32201 114.01777 3283 ft 163 kts 86°
2026-05-01 09:10 22.32277 114.02982 3061 ft 159 kts 86°
2026-05-01 09:10 22.32352 114.04157 2830 ft 155 kts 86°
2026-05-01 09:10 22.32427 114.05311 2614 ft 154 kts 85°
2026-05-01 09:10 22.32501 114.06460 2425 ft 151 kts 86°
2026-05-01 09:11 22.32572 114.07556 2247 ft 141 kts 86°
2026-05-01 09:11 22.32639 114.08588 2034 ft 135 kts 86°
2026-05-01 09:11 22.32704 114.09589 1840 ft 132 kts 86°
2026-05-01 09:11 22.32768 114.10581 1662 ft 134 kts 86°
2026-05-01 09:12 22.32834 114.11590 1485 ft 135 kts 86°
2026-05-01 09:12 22.32899 114.12605 1301 ft 136 kts 87°
2026-05-01 09:12 22.32965 114.13621 1126 ft 138 kts 88°
2026-05-01 09:12 22.33032 114.14652 939 ft 137 kts 88°
2026-05-01 09:13 22.33100 114.15679 748 ft 138 kts 88°
2026-05-01 09:13 22.33164 114.16708 576 ft 137 kts 89°
2026-05-01 09:13 22.33216 114.17735 396 ft 135 kts 93°
2026-05-01 09:13 22.32962 114.18690 222 ft 135 kts 120°
2026-05-01 09:14 22.32363 114.19462 83 ft 133 kts 129°
2026-05-01 09:14 22.31744 114.20161 16 ft 119 kts 131°
2026-05-01 09:14 22.31238 114.20746 14 ft 86 kts 133°
2026-05-01 09:14 22.30923 114.21101 14 ft 47 kts 133°
2026-05-01 09:15 22.30760 114.21287 13 ft 29 kts 133°
2026-05-01 09:15 22.30667 114.21420 13 ft 14 kts 74°
2026-05-01 09:15 22.30750 114.21465 13 ft 13 kts 349°
2026-05-01 09:15 22.30845 114.21368 13 ft 28 kts 308°
2026-05-01 09:16 22.30961 114.21214 13 ft 25 kts 310°
2026-05-01 09:16 22.31073 114.21085 13 ft 22 kts 314°
2026-05-01 09:16 22.31175 114.20970 13 ft 20 kts 314°
2026-05-01 09:17 22.31355 114.20764 13 ft 18 kts 313°
2026-05-01 09:17 22.31455 114.20650 13 ft 25 kts 314°
2026-05-01 09:17 22.31694 114.20382 13 ft 22 kts 314°
2026-05-01 09:18 22.31795 114.20267 13 ft 20 kts 313°
2026-05-01 09:18 22.32013 114.20019 13 ft 22 kts 314°
2026-05-01 09:19 22.32210 114.19805 13 ft 19 kts 313°
2026-05-01 09:19 22.32299 114.19705 13 ft 18 kts 316°
2026-05-01 09:19 22.32414 114.19591 13 ft 26 kts 317°
2026-05-01 09:20 22.32618 114.19451 13 ft 14 kts 41°
2026-05-01 09:20 22.32711 114.19407 13 ft 0 kts 314°